Location: Oroua River
(40.4333°S, 175.4333°E)
Time: 13:52:26
(UTC+00:00)

CZ-2D R/B - Pass Details

Date: 03 February 2023
Orbit: 549 x 629 km, 98.0° (Epoch: 23 March)

Event Time Altitude Azimuth Distance (km) Brightness Sun altitude
Exits shadow 15:58:58 - 6° (N) 2,159 6.0 -15.6°
Reaches altitude 10° 15:59:20 10° 5° (N) 2,010 5.9 -15.5°
Maximum altitude 16:03:43 69° 282° (WNW) 688 3.5 -14.9°
Drops below altitude 10° 16:08:11 10° 198° (SSW) 2,047 6.5 -14.2°
Sets 16:10:25 0° 195° (SSW) 2,961 7.3 -13.8°
